Wind_Speed
4 4 7 7 6 5 6 5 8 0 9 6 13 6 13 14 12 11 11 10 10 10 9 9 7 7 6 5 7 8 9 10 11 12 10 11 15 15 14 16 15 14 13 13
1 9 6 8 6 8 9 6 2 3 9 6 7 12 9 16 14 16 15 14 12 11 10 10 9 8 7 6 6 8 8 9 9 11 11 9 15 16 17 17 17 16 15 15
7 6 11 10 9 14 14 13 6 4 3 1 3 5 6 9 3 10 11 12 13 15 13 14 14 11 9 7 7 7 8 9 9 11 13 15 17 17 17 17 18 19 18 17
11 12 15 18 14 12 14 7 7 12 10 6 9 5 6 7 13 15 15 16 17 17 14 17 17 14 10 8 8 8 9 10 10 12 14 14 13 13 15 18 19 19 18 18
7 11 10 17 21 13 11 8 8 10 10 4 4 2 5 11 7 16 22 20 16 15 16 15 19 16 12 10 10 10 11 12 11 12 14 16 20 22 20 19 19 19 19 19
8 7 8 11 8 16 5 4 4 4 3 5 7 7 6 7 12 8 13 17 18 17 15 19 20 18 14 12 12 13 14 15 15 15 17 20 23 22 20 18 18 18 19 19
4 13 5 5 6 6 5 6 3 4 5 7 11 8 18 11 13 12 23 20 18 18 16 15 20 19 17 14 13 15 17 20 19 19 20 20 21 21 21 19 18 18 19 19
8 9 14 9 12 11 13 13 6 9 9 5 9 9 6 3 4 2 15 19 19 19 17 17 22 21 20 17 17 17 20 22 20 21 21 20 21 21 20 20 19 19 19 17
4 7 5 14 15 16 7 14 15 5 4 2 5 5 3 2 1 4 17 20 19 18 16 17 22 23 22 22 19 20 21 22 20 21 21 20 20 20 21 19 18 18 17 16
5 6 5 7 16 16 14 8 9 10 9 15 6 6 5 6 8 11 18 19 17 15 17 16 22 24 24 23 20 20 20 21 21 20 20 20 20 19 19 19 18 17 16 15
3 6 3 4 11 22 14 12 8 8 9 10 5 7 5 9 15 19 17 17 19 18 17 15 21 24 27 25 23 22 21 21 20 20 21 21 20 19 18 18 17 16 15 14
3 3 4 6 3 3 21 19 20 8 15 13 10 12 1 3 9 16 17 17 17 18 16 19 24 25 26 25 23 22 22 22 21 21 20 20 19 18 17 17 16 14 15 14
2 2 4 4 0 0 2 7 11 18 0 16 10 10 4 6 13 16 20 18 17 18 17 16 21 20 22 25 24 23 22 22 20 20 19 19 18 16 16 16 15 14 13 13
2 3 5 8 9 1 10 8 4 10 6 14 19 4 4 8 15 17 18 20 18 17 17 14 15 20 26 27 25 23 22 20 20 19 17 17 15 15 15 14 13 12 11 10
1 6 4 10 11 8 11 12 11 11 11 8 15 15 11 17 17 16 17 17 20 17 16 15 13 19 25 27 25 23 21 19 18 18 16 16 15 14 13 12 11 10 9 9
4 4 3 6 10 11 12 9 10 13 13 13 15 10 4 14 15 17 18 19 18 18 16 15 18 20 22 24 24 22 20 19 16 16 16 15 13 12 11 9 8 8 7 7
4 3 2 5 5 4 6 14 16 9 6 4 10 6 12 15 18 22 23 21 20 18 17 16 19 23 26 25 24 22 20 18 16 15 14 13 11 10 9 8 7 7 7 7
5 5 3 5 3 4 6 2 2 5 1 4 0 4 12 17 12 13 15 16 20 19 17 17 21 21 23 24 22 20 18 16 15 14 12 11 10 8 7 7 7 7 8 8
16 5 3 3 6 6 8 3 3 1 2 4 3 10 12 16 17 7 12 15 17 17 22 24 25 24 25 25 23 21 17 15 13 12 10 9 8 8 7 7 7 8 8 8
11 12 7 2 4 8 5 1 5 1 4 5 4 10 17 12 6 4 13 17 19 25 27 26 27 27 28 24 21 19 16 14 13 11 10 9 8 7 7 6 6 6 6 7
1 4 15 11 7 5 3 7 6 4 3 5 1 8 9 3 3 17 17 18 26 28 27 29 28 25 26 23 20 18 16 14 13 11 9 8 6 6 5 4 5 6 7 8
6 4 3 3 6 9 2 4 3 3 5 3 4 6 12 17 19 19 18 17 27 28 25 24 24 24 23 21 20 18 16 13 12 11 9 8 6 5 4 5 6 6 7 7
3 2 2 3 2 3 4 5 5 4 4 2 5 9 17 17 17 18 16 17 24 25 23 22 24 22 20 19 17 19 14 12 11 11 9 7 6 6 5 5 6 7 7 8
2 1 2 4 2 1 2 2 3 3 2 5 9 11 15 19 17 18 16 19 22 22 22 23 22 20 19 16 16 16 13 11 12 11 10 9 10 7 7 7 6 7 8 9
3 2 4 4 3 2 3 2 4 4 7 10 10 12 15 18 17 17 15 20 21 21 21 21 21 20 19 18 16 13 12 12 13 12 11 10 9 8 7 5 6 7 8 10
3 5 3 4 4 4 2 1 2 9 11 12 16 14 17 22 17 24 20 22 23 22 22 21 20 21 21 18 16 13 12 12 13 12 10 8 5 4 4 5 6 7 7 8
Wind_Direction
220 176 197 188 198 167 188 205 217 358 169 139 200 203 189 184 194 190 187 190 189 186 172 173 159 153 133 125 126 131 131 127 137 135 127 113 102 96 94 93 91 101 98 95
180 224 208 193 213 228 242 228 196 356 167 186 181 221 180 185 208 194 184 189 188 175 175 178 173 159 141 133 129 132 128 130 136 143 139 127 115 104 96 91 91 88 95 100
189 222 210 209 212 217 228 235 178 166 149 259 171 248 175 218 230 195 196 191 185 182 178 180 177 165 151 139 135 129 129 132 139 134 136 131 120 106 96 91 92 86 88 93
234 245 205 222 228 213 232 209 186 145 151 210 168 260 235 188 197 197 197 194 190 181 177 174 170 162 151 138 138 133 133 134 144 151 154 155 147 119 103 98 94 93 90 87
221 203 206 216 225 226 238 202 158 167 185 146 181 284 253 131 196 210 207 198 190 178 169 166 164 160 144 141 134 127 127 128 136 146 145 140 128 121 115 106 99 93 90 88
226 251 212 213 205 220 177 110 53 124 94 250 186 191 215 184 211 225 201 194 180 166 161 157 147 139 134 129 130 127 121 115 124 130 127 130 125 117 116 114 104 96 92 88
305 247 238 182 202 201 147 135 203 218 202 243 181 202 242 210 216 208 195 185 167 155 145 140 136 135 136 137 135 127 124 115 120 121 123 124 124 127 122 117 111 105 97 89
222 242 212 197 203 203 207 188 195 219 220 223 180 232 240 314 352 221 175 165 153 151 148 142 141 142 145 144 140 133 124 119 123 123 122 126 128 126 121 119 116 107 98 93
240 250 284 211 209 192 188 209 208 271 199 183 218 287 304 311 250 129 143 149 152 147 144 138 139 145 145 145 139 131 126 125 131 130 131 127 125 124 120 120 116 110 106 99
213 264 233 242 206 215 206 159 195 220 222 240 228 235 225 227 198 152 151 152 145 140 136 135 133 133 139 135 129 129 131 133 137 134 131 127 124 123 121 118 111 107 102 98
324 239 256 223 197 206 208 219 221 190 211 227 241 245 207 209 178 170 154 147 143 139 136 134 129 130 137 142 146 139 138 138 133 132 129 126 122 120 118 113 108 103 101 95
188 300 294 246 290 333 222 219 208 206 212 228 240 245 354 232 168 145 139 139 136 134 135 133 133 133 134 137 140 139 137 134 132 131 129 124 122 119 115 109 104 101 96 92
22 292 306 292 260 36 196 245 235 250 177 223 206 244 348 110 129 142 140 141 140 136 133 132 134 136 135 139 143 141 138 134 136 136 131 125 121 119 113 108 105 100 94 87
158 225 224 263 275 168 288 206 255 281 241 223 226 221 254 162 151 152 149 143 143 141 140 137 132 133 142 147 146 144 141 142 141 137 131 126 122 118 114 109 105 99 90 81
251 265 235 261 279 278 267 254 240 227 264 253 254 227 192 184 161 152 143 143 142 143 144 142 137 134 137 145 146 146 145 145 143 137 131 124 120 118 114 109 101 92 81 71
163 270 290 278 269 257 250 261 248 245 256 265 258 278 262 142 136 149 153 153 147 148 142 135 133 131 138 149 151 148 144 141 141 133 125 123 121 117 110 102 92 81 68 59
175 198 29 266 278 288 259 230 224 230 227 220 250 232 148 154 167 164 158 159 152 148 144 142 145 145 151 157 156 152 147 141 137 130 125 123 119 112 102 91 80 67 56 45
189 163 156 250 12 265 260 342 357 270 359 326 65 152 177 167 139 142 151 151 145 143 145 142 143 143 150 154 155 149 145 140 134 129 125 122 116 107 97 82 66 53 40 26
208 168 262 185 216 286 305 3 36 39 266 331 151 105 101 108 97 75 131 139 136 134 134 135 139 141 147 153 152 145 137 132 129 124 121 118 110 98 83 69 56 40 24 12
200 206 199 108 210 215 243 340 8 271 259 314 151 141 138 139 159 152 137 128 124 128 131 133 136 140 145 147 143 139 135 131 123 119 114 105 96 82 66 51 39 28 14 4
216 242 218 217 235 286 273 296 302 172 271 325 53 156 158 155 94 126 119 117 120 123 125 129 135 138 143 142 141 133 127 117 117 116 111 103 93 75 72 55 22 18 17 8
196 196 226 242 218 242 253 332 184 296 308 14 52 100 100 111 117 120 121 122 123 124 125 130 126 131 138 139 136 126 120 127 123 118 112 106 97 91 63 47 42 34 23 18
268 190 204 230 319 207 241 189 255 243 273 344 112 123 124 122 122 122 123 123 121 124 125 127 126 128 134 132 132 122 124 127 121 117 112 104 92 86 66 47 46 43 29 22
317 168 230 43 271 233 306 287 235 297 159 103 119 124 127 123 122 117 116 117 117 121 123 127 127 124 125 122 128 124 125 124 123 114 104 96 90 70 66 62 51 38 10 348
202 99 183 262 294 14 340 342 308 87 104 103 103 118 123 120 118 118 115 115 118 121 128 130 126 124 119 125 120 118 120 125 115 108 102 87 84 73 57 41 21 1 344 326
186 195 163 240 208 140 211 254 99 109 109 111 112 108 110 114 114 114 111 118 123 126 128 124 123 120 123 123 119 114 113 116 115 105 105 87 78 57 24 5 15 17 357 346
Height
770 780 783 783 781 779 782 787 789 786 790 801 807 812 835 840 838 842 845 853 855 857 862 863 863 864 864 866 865 866 868 867 868 870 872 872 871 874 877 876 877 877 877 878
777 779 777 775 777 780 782 786 792 797 792 802 809 809 824 834 829 828 836 844 850 856 859 860 863 864 863 864 865 866 866 866 869 868 872 874 874 876 878 879 878 880 879 879
778 771 770 772 775 779 779 783 794 790 801 803 807 811 823 825 826 829 834 839 842 845 850 856 860 861 863 863 865 865 864 866 870 868 872 874 876 878 880 881 880 882 882 881
771 764 766 770 771 774 778 772 775 797 802 812 800 808 813 814 825 828 828 830 829 835 845 852 854 860 861 861 863 864 865 866 869 870 872 873 875 877 883 884 884 884 884 884
767 761 763 764 761 763 766 763 773 789 791 788 802 809 791 805 819 815 812 814 822 830 837 844 851 858 860 861 862 864 866 868 870 872 872 873 875 878 883 885 886 887 886 887
760 749 751 752 751 753 761 769 776 779 786 794 791 797 786 802 780 780 796 804 812 824 835 844 851 855 859 862 864 867 868 868 872 873 872 875 877 879 883 885 888 889 889 890
756 749 745 743 752 750 756 769 782 785 786 774 774 791 746 757 757 755 770 789 807 820 832 842 847 854 859 863 866 867 868 870 872 874 875 878 879 881 883 885 889 891 891 892
763 757 742 738 741 745 747 751 767 766 764 768 765 764 758 763 765 757 762 782 802 816 826 835 844 853 858 863 866 868 869 870 874 874 877 880 881 881 884 887 890 893 893 894
755 750 732 726 727 735 745 749 743 755 749 760 762 748 761 768 763 763 771 788 805 817 827 835 843 850 856 861 864 867 869 871 874 875 879 881 882 884 885 889 891 893 894 895
753 744 728 721 722 725 728 734 752 750 754 751 753 750 738 761 765 768 779 794 809 820 827 835 842 850 857 861 865 867 870 871 875 877 880 882 884 886 888 890 893 894 895 897
761 750 734 724 723 726 727 731 730 732 741 734 741 725 733 730 747 759 778 795 808 817 826 835 843 850 855 860 864 868 871 873 876 879 881 883 887 888 890 891 894 895 896 898
761 760 744 736 730 728 717 718 725 723 723 720 723 716 750 749 751 764 785 799 809 818 827 835 843 850 856 861 866 869 872 874 878 881 884 886 888 890 892 893 895 897 898 900
767 757 746 731 739 739 742 733 734 724 725 712 726 709 758 755 762 774 784 800 811 820 830 837 844 851 856 861 866 870 873 876 880 883 886 887 889 892 893 895 897 899 900 902
766 763 758 749 733 743 737 738 741 741 719 706 704 738 771 761 766 777 787 797 810 821 829 838 845 851 857 861 865 870 874 878 881 884 886 888 890 893 895 896 898 900 902 903
770 762 766 749 743 741 740 735 731 733 730 717 697 711 749 750 761 776 788 801 810 822 831 838 845 852 857 862 867 871 875 879 881 883 886 888 891 894 896 898 900 901 902 903
769 775 763 769 745 740 736 734 732 730 726 725 720 721 752 749 764 779 790 801 810 820 830 839 846 852 858 864 868 872 876 879 882 884 886 889 892 895 897 898 900 901 902 904
786 778 804 807 763 751 744 727 722 718 722 716 711 715 747 758 762 769 780 794 806 818 829 838 846 851 857 865 869 872 876 879 882 884 887 890 893 895 897 899 900 901 902 903
787 796 799 799 789 790 734 758 754 732 741 742 736 744 741 742 758 773 782 793 801 815 827 837 846 853 859 864 869 874 877 880 882 885 888 890 893 895 897 899 900 901 902 903
757 786 798 793 778 767 738 771 768 754 733 760 754 754 762 769 776 790 792 800 808 816 828 837 846 853 860 865 869 873 877 880 884 886 889 891 893 895 897 899 900 901 902 903
754 756 759 811 788 779 768 783 784 782 741 770 765 766 765 767 775 792 798 804 814 822 830 839 846 854 860 866 870 874 878 881 884 887 889 892 894 895 898 900 900 901 902 903
755 750 743 751 751 758 804 802 793 748 753 774 770 770 770 767 777 793 803 812 819 826 835 842 850 856 861 866 871 875 879 882 885 888 890 892 894 896 898 899 900 900 901 901
767 759 757 766 744 743 812 796 776 796 787 779 779 781 783 785 792 799 808 816 823 832 841 848 852 858 864 869 872 876 880 883 886 888 891 892 894 896 898 898 899 899 900 901
757 786 772 772 764 803 811 804 804 802 796 789 786 787 787 794 799 806 814 822 829 836 844 850 855 861 867 871 875 877 881 883 886 888 891 893 895 896 897 898 899 900 901 901
794 798 788 802 802 799 799 798 798 795 794 791 791 793 795 799 805 812 820 827 834 841 847 853 859 864 869 873 876 879 881 884 886 889 891 893 894 896 897 898 899 900 901 901
794 798 804 809 815 806 801 799 798 794 794 794 796 799 802 805 812 816 825 833 839 845 852 857 862 867 871 874 878 881 882 885 887 889 891 893 895 897 898 899 900 900 900 898
803 791 795 787 805 805 805 800 798 798 798 800 801 806 811 811 817 823 831 838 843 849 855 860 865 868 872 876 880 882 884 886 887 890 893 895 896 897 898 898 898 898 899 898